Location: �perlecques
(50.8057°N, 2.1521°E)
Time: 17:51:13
(UTC+00:00)

Cosmos 1455 - Pass Details

Date: 09 April 2020
Orbit: 498 x 524 km, 82.5° (Epoch: 01 June)

Event Time Altitude Azimuth Distance (km) Brightness Sun altitude
Exits shadow 21:31:20 67° 296° (WNW) 565 2.4 -23.7°
Drops below altitude 10° 21:35:05 10° 6° (N) 1,763 5.5 -24.1°
Sets 21:37:15 0° 9° (N) 2,660 6.4 -24.3°
